sat.trackr.live / text

‹ back to catalog

ORBCOMM FM19

NORAD 25415 · 1998-046C

PAYLOAD ACTIVE UNKNOWN

§ Identity

Operator
Country
ORB
Launch date
1998-08-02
Launch site
ERAS
Launch vehicle
Mass (kg)
RCS (m²)
0.52

Purposes: comms

External: N2YO · Heavens-Above · Gunter

§ Orbital elements

Epoch: 2026-05-25T01:27:14.702112Z

Period
100.04 min
Inclination
44.9952°
Eccentricity
0.0003107
Mean motion
14.39445911 rev/d
Perigee alt
758.1 km
Apogee alt
762.5 km
Semi-major
7,138.5 km
B*
2.9353e-4
RAAN
353.4857°
Arg perigee
184.7682°
Mean anomaly
343.3053°
Rev number
45,344

§ Raw data

ORBCOMM FM191 25415U 98046C   26145.06058683  .00000780  00000+0  29353-3 0  99972 25415  44.9952 353.4857 0003107 184.7682 343.3053 14.39445911453446

JSON: /api/v1/satellites/25415 · /tle

For live sub-satellite position, see the globe view (requires WebGL).

§ Visibility from observer

Set your observer location to see the next 7 days of passes ≥ 10°. The values pass through the URL so the page stays shareable.

No JS? Fill the form by hand. The geolocation button needs JavaScript.